Dewpoint
15 15 16 17 18 19 20 20 21 22 29 32 34 29 24 22 18 17 17 18 20 23 26 31 33 36 37 37 38 40 44 43 43 45 46 48 48 48 49 49 48 48 48
14 14 15 15 16 16 16 17 18 19 24 29 30 27 22 20 18 16 13 15 16 19 21 26 30 32 34 34 36 38 40 43 42 40 43 46 46 46 48 47 43 43 43
15 13 13 14 13 12 12 14 14 14 18 22 26 24 22 19 16 14 13 12 13 17 19 21 27 29 31 33 33 36 35 39 39 39 40 40 41 42 47 41 41 40 40
15 13 13 12 9 9 10 12 11 11 14 17 19 19 17 15 13 12 11 12 10 12 16 17 20 24 27 28 30 30 32 34 35 39 37 39 36 36 40 41 37 38 37
16 13 13 8 8 7 8 8 8 8 8 12 17 17 14 13 13 11 8 9 9 9 10 13 14 17 21 22 25 26 26 27 31 33 33 34 36 33 35 36 34 35 35
13 10 8 6 6 6 6 6 6 5 6 7 8 9 9 8 9 9 9 8 8 8 7 8 10 13 17 19 20 22 22 21 21 25 25 28 29 28 31 32 31 29 33
10 7 6 5 4 3 4 4 4 3 5 5 5 5 5 5 6 9 7 7 7 4 4 6 6 8 11 17 18 18 19 21 19 18 20 20 19 20 23 26 24 25 26
6 5 5 4 1 1 2 3 3 3 2 3 3 3 3 4 4 2 4 4 3 5 3 4 4 4 7 11 15 15 17 17 20 16 16 17 18 18 19 20 18 17 19
6 4 2 1 1 2 3 4 3 3 3 2 3 3 3 2 2 1 2 2 2 -2 2 2 3 3 4 8 12 13 12 15 16 18 15 16 14 17 17 18 17 17 16
5 1 -1 -1 2 3 4 5 5 6 5 5 5 6 7 8 7 6 5 4 4 3 3 3 4 4 4 8 10 11 12 12 13 13 12 12 11 12 14 15 15 16 16
2 -0 -2 -0 1 2 2 3 4 5 6 8 9 9 9 9 9 9 9 9 8 7 6 6 6 6 6 7 12 12 12 13 12 11 12 11 9 10 10 12 13 14 14
1 -1 -1 -2 -1 0 2 3 5 5 6 8 8 9 10 10 9 9 9 9 9 9 9 8 8 7 8 8 11 13 14 14 13 12 12 11 7 10 9 11 11 12 12
1 1 1 1 3 5 7 8 8 8 8 9 9 10 10 10 9 9 9 9 9 9 8 9 8 8 8 9 11 13 16 16 15 15 14 13 11 10 9 11 11 13 12
5 5 6 7 6 7 7 6 6 7 7 8 8 7 7 7 8 9 9 9 9 9 9 8 8 9 9 10 14 14 16 16 17 17 16 14 14 12 12 11 13 11 14
7 7 7 6 5 5 5 5 5 5 4 5 5 4 5 6 6 7 9 10 10 10 11 10 8 7 7 12 9 12 12 11 13 16 18 17 16 18 18 15 15 15 15
8 9 9 8 6 6 6 8 7 5 8 7 7 8 9 9 9 10 10 10 10 9 8 5 5 3 10 14 16 16 9 13 12 10 12 14 16 17 19 19 19 18 16
10 9 8 8 9 10 11 9 9 9 9 8 8 8 8 8 9 10 10 9 9 8 8 6 6 6 4 14 17 18 16 10 6 9 12 14 17 16 13 16 17 17 17
10 10 10 10 11 11 10 10 9 8 7 7 7 7 7 6 7 9 8 7 7 5 6 6 6 6 8 12 15 16 13 10 9 10 9 9 10 12 13 13 11 12 14
10 11 11 10 9 8 8 7 7 7 6 6 7 8 8 7 7 6 6 6 6 5 5 4 4 3 3 9 13 14 11 11 11 11 11 10 11 16 17 15 15 14 15
10 9 8 8 7 7 7 7 6 6 6 6 6 5 5 4 3 3 3 3 2 0 0 -2 -1 2 0 6 10 11 7 6 5 5 5 12 12 15 17 15 16 15 14
7 8 8 7 6 6 5 4 3 1 -2 -5 -5 -5 -5 -5 -5 -5 -5 -4 -4 -4 -3 -3 -2 -3 -1 1 11 13 6 5 6 6 5 5 14 16 17 18 17 16 17
8 9 7 5 4 4 1 -1 -4 -5 -4 -3 -3 -3 -3 -3 -3 -3 -2 -2 -2 -2 -1 -0 0 1 -1 7 9 12 13 13 9 12 14 12 15 16 18 17 19 20 20
8 4 2 -0 -1 -1 -4 -4 -3 -3 -3 -3 -3 -4 -4 -4 -3 -2 -2 -2 -1 -1 -1 -1 -1 -0 -1 -0 10 12 12 12 6 6 9 14 14 14 12 14 16 16 12
-1 -1 -2 -3 -4 -4 -4 -3 -4 -4 -5 -6 -5 -5 -4 -1 -3 -2 -1 -0 -2 -3 0 0 1 3 5 7 7 5 5 13 13 13 8 12 16 17 16 12 9 5 7
-1 -1 -3 -4 -4 -5 -6 -6 -6 -5 -6 -5 -3 -2 -1 -0 -1 -0 0 2 3 4 7 10 11 10 8 9 14 14 14 15 18 15 17 15 14 12 11 9 9 8 8
-3 -4 -6 -6 -6 -6 -6 -5 -4 -4 -3 -2 -0 0 0 -0 1 0 -1 6 7 9 10 11 9 9 11 11 14 16 16 16 18 13 7 5 6 5 6 8 10 14 13
Lifted_Index
2 3 4 4 5 5 5 5 6 7 7 7 7 7 8 8 9 10 10 10 11 11 10 10 10 10 9 9 9 9 9 10 10 10 9 8 9 9 9 9 10 10 10
2 3 3 4 4 5 5 6 6 7 8 8 8 8 8 9 9 10 10 11 11 11 11 11 11 10 10 10 10 10 10 10 10 10 9 8 9 9 9 9 10 10 10
2 2 3 3 4 5 6 7 8 9 10 10 9 9 9 9 9 10 11 11 12 12 12 11 11 11 11 11 11 11 11 10 10 10 10 9 9 9 9 9 10 10 10
3 2 2 3 4 6 8 9 10 11 11 11 10 10 9 10 10 11 11 12 13 13 13 13 12 12 12 12 12 12 11 11 11 11 10 10 10 9 9 9 10 10 11
3 3 3 4 6 8 10 11 12 12 12 12 11 10 10 10 11 11 12 13 14 15 15 15 14 14 14 14 14 13 13 12 12 12 11 11 11 10 10 10 10 11 12
3 3 4 6 8 10 11 12 12 12 12 12 12 11 11 11 11 12 12 13 14 16 17 17 17 17 17 17 17 17 16 16 15 15 14 14 13 13 13 13 13 14 15
4 4 6 8 10 11 13 13 13 13 13 13 13 13 13 13 13 13 14 14 16 17 19 20 20 20 21 21 21 21 20 20 19 19 18 18 18 17 17 17 16 16 17
4 5 8 10 11 13 14 14 14 14 14 15 15 15 15 15 16 16 17 18 19 20 21 22 23 23 23 23 23 23 22 22 22 22 21 21 21 21 21 20 19 17 16
5 7 10 12 13 14 15 15 15 15 16 16 17 17 18 19 19 20 20 21 22 22 23 23 23 24 24 24 23 23 23 23 23 23 23 23 23 24 23 23 22 19 17
7 9 12 14 15 15 16 17 17 17 18 19 20 20 21 22 22 22 23 23 23 24 24 24 24 24 24 24 24 24 24 24 24 24 24 24 24 25 25 25 24 23 21
8 10 13 15 16 17 18 18 19 19 20 21 22 22 23 23 24 24 24 24 24 24 24 24 24 24 25 25 25 25 25 24 24 25 25 25 25 25 25 25 25 25 25
9 11 14 16 17 18 19 20 20 21 22 23 23 23 24 24 24 24 24 24 25 25 25 25 25 25 25 25 25 25 25 25 25 25 25 25 25 26 26 26 26 26 26
10 12 14 16 17 19 20 21 22 23 23 24 24 23 23 24 24 24 25 25 25 26 26 26 26 26 26 26 26 26 26 26 26 26 26 26 26 26 26 26 26 26 26
9 11 13 16 18 19 21 22 23 23 24 24 23 23 23 24 24 25 25 26 26 26 26 27 26 27 27 27 26 26 26 26 26 26 26 26 26 26 26 26 26 26 26
9 11 14 16 18 20 21 22 23 24 24 24 23 23 24 24 25 25 26 26 26 27 27 27 27 27 27 27 27 27 26 26 26 26 26 26 27 27 27 27 27 27 27
9 12 15 18 20 21 22 23 23 24 24 23 23 24 24 25 25 26 26 26 26 27 27 27 26 27 27 27 27 27 27 26 26 26 26 27 27 27 27 27 28 28 27
11 14 17 20 22 22 23 23 23 23 23 23 23 24 24 25 25 26 26 26 26 26 26 26 26 26 27 27 28 28 28 27 27 27 27 27 27 27 27 27 27 28 28
15 17 20 22 23 23 23 23 23 23 22 23 23 24 25 25 25 25 25 26 26 26 26 26 26 26 26 27 27 28 28 28 27 27 27 27 27 27 27 27 27 27 27
19 20 22 22 23 22 22 22 22 23 23 23 24 25 25 25 25 25 25 25 26 26 26 26 26 26 26 27 27 28 28 28 27 27 27 27 27 27 27 26 26 26 26
20 21 22 22 22 22 22 22 22 23 24 24 25 25 25 25 25 25 26 26 26 26 26 26 27 27 27 27 27 28 28 27 27 27 28 28 27 27 26 26 26 26 26
21 21 21 21 22 22 23 23 23 24 24 25 25 25 26 26 26 26 26 26 27 27 27 27 27 28 28 28 28 28 28 28 27 28 28 28 27 27 26 25 25 25 25
21 21 21 21 22 24 24 24 24 24 25 25 25 26 26 26 27 27 27 27 27 27 27 27 27 28 29 29 29 28 28 27 27 27 27 27 26 26 25 24 24 23 23
21 21 21 22 24 25 24 24 24 25 25 25 25 26 26 27 27 27 27 27 27 27 27 27 28 29 29 29 29 28 27 27 26 26 26 25 25 24 24 23 23 22 22
22 22 23 23 23 24 24 24 25 25 25 25 25 26 26 26 27 27 27 27 27 27 27 28 28 28 29 28 28 27 26 25 25 24 24 23 23 22 22 22 21 21 20
23 23 23 22 23 23 24 25 25 25 25 25 25 25 26 26 27 27 27 28 28 28 28 27 27 27 27 26 25 24 24 23 22 22 22 21 21 20 20 19 19 18 17
23 22 22 22 22 23 24 25 25 25 25 24 25 25 26 26 27 27 27 28 29 28 27 27 27 26 26 25 24 23 22 21 21 20 20 20 19 19 18 18 17 16 15